Regional Weather Roundup
Issued by NWS

Home | Current Version | Previous Version | Text Only | Print | Product List | Glossary On
Versions: 1 2 3 4 5 6 7 8 9 10 11 12 13 14 15 16 17 18 19 20 21 22 23 24 25 26 27 28 29 30 31 32 33 34 35 36 37 38 39 40 41 42 43 44 45 46 47 48 49 50
000
ASHW40 PHFO 260943
RWRHI

WEATHER ROUNDUP FOR HAWAII
NATIONAL WEATHER SERVICE HONOLULU HI
1100 PM HST SAT OCT 25 2014

THIS IS AN AUTOMATED REPORT THAT HAS NOT BEEN QUALITY CONTROLLED.

NOTE..."FAIR" INDICATES FEW OR NO CLOUDS BELOW 12,000 FEET WITH NO
SIGNIFICANT WEATHER AND/OR OBSTRUCTIONS TO VISIBILITY.

* - THESE SITES REPORT LIMITED FIELDS

HIZ001>004-261000-
KAUAI-NIIHAU-

CITY           SKY/WX    TMP DP  RH WIND       PRES   REMARKS
LIHUE APT      PTCLDY    79  70  74 E13       30.05F
PORT ALLEN*      N/A     77 N/A N/A E9          N/A
POIPU*           N/A     79 N/A N/A NE6G13      N/A
PRINCEVILLE*     N/A     75 N/A N/A MISG        N/A
KOKOLE POINT*  NOT AVBL
MOLOAA DAIRY*  NOT AVBL
WAIMEA HTS*      N/A     73  64  73 NE3G12      N/A
PUU OPAE*        N/A     66  61  82 CALM        N/A
PUU LUA*       NOT AVBL
MAKAHA RIDGE*  NOT AVBL
$$

HIZ005>011-261000-
OAHU-

CITY           SKY/WX    TMP DP  RH WIND       PRES   REMARKS
HONOLULU       PTCLDY    78  71  79 E6        30.03S
KALAELOA       CLEAR     74  69  85 CALM      30.04F
KANEOHE MCB    PTCLDY    79  71  76 MISG      30.05R
WHEELER FIELD  FAIR      73  70  91 VRB2      30.06
BELLOWS*       NOT AVBL
KAHUKU*        NOT AVBL
WHEELER*       NOT AVBL
WAIANAE HARBOR NOT AVBL
DILLINGHAM*      N/A     70  66  88 E1          N/A
KAHUKU TRN*      N/A     82  81  94 E6G15       N/A  HX  95
KAWAILOA*        N/A     72  68  88 E10G16      N/A
KII*             N/A     77  72  83 E14G22      N/A
MAKUA RANGE*     N/A     75  68  78 E3G9        N/A
OAHU FOREST NW   N/A     68  68 100 N9G32       N/A
SCHOFIELD BRK*   N/A     70  68  94 W1          N/A
SCHOFIELD S*   NOT AVBL
WAIANAE VLY*     N/A     73  66  78 N5G13       N/A
KUAOKALA*        N/A     73  64  73 CALM        N/A
HONOULIUULI*   NOT AVBL
MOKUOLOE IS*     N/A    N/A N/A N/A MISG        N/A
PALEHUA*         N/A     81  72  74 CALM        N/A
WAIAWA PHB*    NOT AVBL
$$

HIZ012>013-261000-
MOLOKAI-

CITY           SKY/WX    TMP DP  RH WIND       PRES   REMARKS
MOLOKAI AIRPT  PTCLDY    75  72  90 NE10G18   30.04F
KALAUPAPA      NOT AVBL
MAKAPULAPAI*     N/A     79  72  78 E21G30      N/A
MOLOKAI 1*       N/A     66  66 100 E7G17       N/A
PUU ALII*        N/A     62  62 100 W2G12       N/A
$$

HIZ016-261000-
KAHOOLAWE-

CITY           SKY/WX    TMP DP  RH WIND       PRES   REMARKS
KAHOOLAWE*       N/A     70 N/A N/A E18G29      N/A
HAKIOAWA*      NOT AVBL
HONOKANAIA*      N/A     78  72  81 NE13G31   30.04S
KANELOA*         N/A     73  70  88 E21G38    29.26R
KEALIALALO*    NOT AVBL
LUA MAKIKA*    NOT AVBL
$$

HIZ014>015-261000-
LANAI-

CITY           SKY/WX    TMP DP  RH WIND       PRES   REMARKS
LANAI CITY     FAIR      72  71  96 NE6       30.09S
LANAI 1*         N/A     70  70 100 E10G22      N/A
$$

HIZ017>028-261000-
MAUI-

CITY           SKY/WX    TMP DP  RH WIND       PRES   REMARKS
KAHULUI        CLEAR     76  69  79 NE17G25   30.03F
KAPALUA-W MAUI NOT AVBL
HANA AIRPORT   CLOUDY    75  68  78 E5        30.09S
HANA*            N/A     77 N/A N/A E10G17      N/A
HALEAKALA SUMM   N/A     43  43 100 SE22        N/A
MAALAEA BAY*   NOT AVBL
HALEAKALA*     NOT AVBL
KAUPO GAP*       N/A     63  59  88 N13G25      N/A
KULA 1*          N/A     52  51  95 E2          N/A
$$

HIZ023>026-261000-
BIG ISLAND OF HAWAII COAST AND LOWER SLOPES-

CITY           SKY/WX    TMP DP  RH WIND       PRES   REMARKS
KAILUA KONA    CLEAR     79  69  71 SE5       30.00S
HILO           MOCLDY    74  72  93 SW5       30.06S
HONOKAA*       NOT AVBL
KAWAIHAE MWT*    N/A     81 N/A N/A E13G23      N/A
KAWAIHAE*        N/A     82 N/A N/A E17G26      N/A
SOUTH POINT*     N/A     72 N/A N/A NE15G24     N/A
UPOLU AIRPORT*   N/A    N/A N/A N/A E21G31      N/A
KAMUELA*       SUNNY     64  64 100 NE10      30.13S
HAKALAU*         N/A     55  55  98 SE1         N/A
KALOKO-HONOKO* NOT AVBL
PALI 2*          N/A     66  64  94 N14G20      N/A
KEALAKOMO*       N/A     75  70  83 NE12G17     N/A
KAUPULEHU*       N/A     72  61  68 SW7         N/A
KAPAPALA*        N/A     67  65  94 CALM        N/A
LOWER KAHUKU*  NOT AVBL
PUHE CS*       NOT AVBL
PUHO CS*         N/A     74  62  66 E3          N/A
PTA KEAMUKU*     N/A     63  57  82 SE9         N/A
WAIKOLOA*        N/A     72  63  73 E9          N/A
$$

HIZ027>028-261000-
BIG ISLAND OF HAWAII INTERIOR AND SUMMMITS-

CITY           SKY/WX    TMP DP  RH WIND       PRES   REMARKS
BRADSHAW FIELD PTCLDY    52  47  82 SE3       30.36F
MK VISITOR CEN NOT AVBL
MAUNA KEA*       N/A     36  -8  15 SE28        N/A  WCI  23
MAUNA LOA*       N/A     39  34  81 MISG        N/A
MAUNA LOA 1*     N/A     41  37  87 MISG        N/A
PTA KIPUKA*      N/A     55  52  88 SE2G9       N/A
PTA RANGE 17*    N/A     59  52  77 E12G18      N/A
PTA WEST*        N/A     55  54  94 E7          N/A
NENE CABIN*      N/A     54  54 100 E9G20       N/A
AHUMOA*          N/A     52  49  88 E3          N/A
PTA PORTABLE*  NOT AVBL
PUU MALI*      NOT AVBL
$$

HIC003-261000-
NORTHWEST ISLANDS-

CITY           SKY/WX    TMP DP  RH WIND       PRES   REMARKS
MIDWAY ISLAND  PTCLDY    75  70  83 NE7       30.05S
MIDWAY NOS*    NOT AVBL
FRENCH FRIGATE NOT AVBL
$$

PHZ110>124-180-261000-
BUOY REPORTS

STATION/POSITION TIME  TEMP    WIND        PRES    WAVE   SWELL
                       AIR SEA DIR/SP/G            HT/PER HT/DIR
                 (UTC) (F)     (DEG/KT/KT) (MB)    (FT/S) (FT/D)
BUOY 51001       NOT AVBL
BUOY 51101       NOT AVBL
BUOY 51100       0900   78 79   90/ 14/ 17 1018.7F
BUOY 51003       0900   81 82   40/ 12/ 14 1016.4F   5/ 8   5
BUOY 51004       0807   79 81   80/ 14/ 17 1015.7    7/ 9   5/ 20
BARBERS PT BUOY  NOT AVBL
WAIMEA BAY BUOY  0900      81                N/A     5/12   3/350
KAILUA BAY BUOY  0900      81                N/A     7/12   3/350
LANAI BUOY       0900      82                N/A     3/11   2/190
BARBERS PT 2     0900      81                N/A     3/11   2/180
PAUWELA MAUI     0900      80                N/A     8/ 8   3/360
HILO             0900      81                N/A     8/12   3/360
KANEOHE BAY BUOY NOT AVBL
HANALEI KAUAI    NOT AVBL
KAHULUI HARBOR   0900   77 81   70/ 12/ 24 1016.9R
HONOLULU HARBOR  0900   80      CALM  /  4 1017.4R
KILO NALU        NOT AVBL
HILO HARBOR      0900   74     210/  2/  3 1017.4R
MOKUOLOE         0900      82              1017.6R
NAWILIWILI       0900      82                N/A
WHOTS BUOY       NOT AVBL
BUOY 51028       NOT AVBL
$$

......................KEY........................................
  SKY/WX - SKY CONDITIONS/PRESENT WEATHER
  TMP    - TEMPERATURE IN FAHRENHEIT
  DWPT   - DEWPOINT IN FAHRENHEIT
  RH     - RELATIVE HUMIDITY IN PERCENT
  WIND   - DIRECTION AND SPEED /MPH FOR ISLANDS...KTS FOR BUOYS/
  PRES   - MEAN SEA LEVEL PRESSURE IN INCHES OF HG
  VSB    - VISIBILITY IN MILES
  HX     - HEAT INDEX
  WCI    - WIND CHILL INDEX
  VRB    - VARIABLE WIND DIRECTION
  N/A    - NOT AVAILABLE



USA.gov is the U.S. government's official web portal to all federal, state and local government web resources and services.